Погода в Нежинке

Россия / Оренбургская область     51°45′59″N   55°21′47″E
темп.,
°C
ветер,
м/с
пор.,
м/с
влажн.,
%
обл.,
%
осадки,
мм/ч
давл.,
гПа
погр.,
м
25 июля, вс
вс2523:00+21с354177 0.0 100992
02:00+18с33545 0.0 101034
05:00+18ссз22545 0.0 101114
08:00+20с455226 0.0 1013316
11:00+24с454218 0.0 10141421
14:00+27сз552954 0.0 10142915
17:00+28ссз652642 0.0 10142882
20:00+24ссз57310 0.0 1016596
26 июля, пн
пн2623:00+18ссз412460 0.0 1018246
02:00+15с37530 0.0 1019123
05:00+13с34550 0.0 102064
08:00+17с34410 0.0 1021254
11:00+23с33270 0.0 10201922
14:00+25с43220 0.0 10202537
17:00+26с44213 0.0 10182843
20:00+23с57286 0.0 1019585
27 июля, вт
вт2723:00+18с34374 0.0 101946
02:00+15с22440 0.0 102018
05:00+14ссз22485 0.0 101914
08:00+17с23415 0.0 1020226
11:00+24с43271 0.0 10191957
14:00+26сз44235 0.0 10172936
17:00+27сз452223 0.0 10153128
20:00+25ссз462797 0.0 1014323
28 июля, ср
ср2823:00+20ссз363939 0.0 1015127
02:00+17зсз11525 0.0 101411
05:00+16зсз22581 0.0 101412
08:00+18ссз57630 0.0 1014448
11:00+23с78360 0.0 10141719
14:00+25с78250 0.0 10142251
17:00+26с56230 0.0 10132526
20:00+24с57270 0.0 1013589
29 июля, чт
чт2923:00+18ссв33390 0.0 101430
02:00+15всв11430 0.0 101511
05:00+14ю22460 0.0 101511
08:00+19ююз12360 0.0 1015185
11:00+25зюз33270 0.0 10151593
14:00+28зюз4524100 0.0 10132930
17:00+29юз4521100 0.0 10123089
20:00+26ю2330100 0.0 101148